Location: Newark
(29.9790°N, 31.1340°E)
Time: 20:34:49
(UTC+00:00)

Transit 2A Rocket - Pass Details

Date: 23 January 2020
Orbit: 591 x 912 km, 66.7° (Epoch: 22 February)

Event Time Altitude Azimuth Distance (km) Brightness Sun altitude
Rises 14:18:57 0° 310° (NW) 3,144 8.4 11.8°
Reaches altitude 10° 14:22:08 10° 289° (WNW) 2,286 8.2 11.2°
Maximum altitude 14:25:12 16° 253° (WSW) 1,971 9.2 10.7°
Drops below altitude 10° 14:28:24 10° 217° (SW) 2,404 9.1 10.1°
Sets 14:31:54 0° 197° (SSW) 3,395 9.1 9.4°
